Weather History for PAOM - August, 2013

Change the Weather History Date:

Tuesday, August 6, 2013

  Actual Average Record
Temperature  
Mean Temperature 56 °F 51 °F  
Max Temperature 61 °F 57 °F 74 °F (1976)
Min Temperature 50 °F 45 °F 32 °F (1937)
Degree Days  
Heating Degree Days 9 14  
Month to date heating degree days 50 84  
Since 1 June heating degree days 933 1000  
Since 1 July heating degree days 457 484  
Cooling Degree Days 0    
Month to date cooling degree days 0  
Year to date cooling degree days 7  
Since 1 June cooling degree days 7  
Growing Degree Days 6 (Base 50)    
Moisture  
Dew Point 53 °F    
Average Humidity 0    
Maximum Humidity 0    
Minimum Humidity 0    
Precipitation  
Precipitation 0.33 in 0.10 in 0.65 in (2005)
Month to date precipitation 1.45 0.63  
Year to date precipitation 10.35 7.86  
Snow  
Snow 0.00 in 0.00 in 0.00 in (2014)
Month to date snowfall 0.0 0.0  
Since 1 June snowfall 0.1 0.3  
Since 1 July snowfall 0.0 0.0  
Snow Depth 0.00 in    
Sea Level Pressure  
Sea Level Pressure 29.79 in    
Wind  
Wind Speed 9 mph (East)    
Max Wind Speed 17 mph    
Max Gust Speed 21 mph    
Visibility 9 miles    
Events Rain    
T = Trace of Precipitation, MM = Missing Value Source: NWS Daily Summary

Daily Weather History Graph

Daily Weather History Graph

Search for Another Location

Airport or City:

Trip Planner

Search our weather history database for the weather conditions in past years. The results will help you decide how hot, cold, wet, or windy it might be!

Date:

Astronomy

Aug. 06, 2013 Rise Set
Actual Time 6:22 AM AKDT 11:49 PM AKDT
Civil Twilight 5:02 AM AKDT 1:08 AM AKDT
Nautical Twilight Sun does not set Sun does not set
Astronomical Twilight Sun does not set Sun does not set
Moon 6:57 AM AKDT (8/6) 10:46 PM AKDT (8/6)
Length of Visible Light 20h 05m
Length of Day
17h 26m
Waning Crescent, 0% of the Moon is Illuminated
Aug 6
Waning Crescent
Aug 6
New
Aug 14
First Quarter
Aug 20
Full
Aug 28
Last Quarter

Hourly Weather History & Observations

Time (AKDT) Temp. Dew Point Humidity Pressure Visibility Wind Dir Wind Speed Gust Speed Precip Events Conditions
12:53 AM 55.0 °F 53.1 °F 93% 29.75 in 10.0 mi ENE 4.6 mph - 0.00 in   Mostly Cloudy
1:53 AM 55.0 °F 53.1 °F 93% 29.75 in 10.0 mi East 8.1 mph - N/A   Mostly Cloudy
2:53 AM 54.0 °F 52.0 °F 93% 29.77 in 10.0 mi East 4.6 mph - N/A   Mostly Cloudy
3:53 AM 52.0 °F 51.1 °F 97% 29.78 in 10.0 mi East 6.9 mph - N/A   Scattered Clouds
4:53 AM 53.1 °F 51.1 °F 93% 29.79 in 10.0 mi ENE 6.9 mph - N/A   Mostly Cloudy
5:53 AM 54.0 °F 52.0 °F 93% 29.79 in 10.0 mi ENE 6.9 mph - N/A   Mostly Cloudy
6:53 AM 50.0 °F 50.0 °F 100% 29.79 in 10.0 mi Calm Calm - N/A   Mostly Cloudy
7:53 AM 53.1 °F 52.0 °F 96% 29.80 in 7.0 mi ENE 4.6 mph - 0.01 in Rain Light Rain
8:53 AM 55.0 °F 53.1 °F 93% 29.80 in 10.0 mi NE 5.8 mph - 0.07 in   Overcast
9:53 AM 55.9 °F 53.1 °F 90% 29.80 in 10.0 mi ENE 4.6 mph - 0.00 in Rain Light Rain
10:53 AM 55.9 °F 54.0 °F 93% 29.80 in 3.0 mi ENE 8.1 mph - 0.06 in Rain Light Rain
11:30 AM 55.4 °F 53.6 °F 94% 29.80 in 5.0 mi East 4.6 mph - 0.08 in Rain Light Rain
11:39 AM 55.4 °F 53.6 °F 94% 29.80 in 1.8 mi ESE 4.6 mph - 0.12 in Rain Rain
11:45 AM 55.4 °F 55.4 °F 100% 29.80 in 3.0 mi ESE 3.5 mph - 0.13 in Rain Light Rain
11:53 AM 57.0 °F 55.0 °F 93% 29.80 in 10.0 mi SE 9.2 mph - 0.13 in Rain Light Rain
12:00 PM 55.4 °F 53.6 °F 94% 29.80 in 6.0 mi ESE 11.5 mph 17.3 mph 0.00 in Rain Light Rain
12:25 PM 55.4 °F 53.6 °F 94% 29.80 in 6.0 mi East 12.7 mph 19.6 mph 0.03 in Rain Light Rain
12:53 PM 57.0 °F 55.0 °F 93% 29.80 in 7.0 mi East 15.0 mph - 0.03 in Rain Light Rain
1:13 PM 57.2 °F 55.4 °F 94% 29.80 in 4.0 mi ESE 9.2 mph - 0.00 in Rain Light Rain
1:29 PM 59.0 °F 55.4 °F 88% 29.80 in 10.0 mi ESE 15.0 mph - 0.02 in   Overcast
1:53 PM 59.0 °F 54.0 °F 83% 29.81 in 10.0 mi ESE 15.0 mph - 0.02 in   Mostly Cloudy
2:53 PM 59.0 °F 54.0 °F 83% 29.80 in 10.0 mi ESE 15.0 mph - N/A   Overcast
3:25 PM 59.0 °F 53.6 °F 82% 29.79 in 10.0 mi ESE 15.0 mph - N/A   Mostly Cloudy
3:53 PM 60.1 °F 55.0 °F 83% 29.80 in 10.0 mi East 12.7 mph - N/A   Mostly Cloudy
4:53 PM 60.1 °F 53.1 °F 78% 29.79 in 10.0 mi East 13.8 mph - N/A   Mostly Cloudy
5:00 PM 60.8 °F 53.6 °F 77% 29.78 in 10.0 mi East 12.7 mph - N/A   Mostly Cloudy
5:53 PM 61.0 °F 53.1 °F 75% 29.78 in 10.0 mi East 11.5 mph - 0.00 in Rain Light Rain
6:53 PM 60.1 °F 54.0 °F 80% 29.77 in 10.0 mi East 10.4 mph - 0.00 in Rain Light Rain
7:53 PM 57.9 °F 54.0 °F 87% 29.77 in 10.0 mi ENE 8.1 mph - 0.00 in Rain Light Rain
8:53 PM 57.9 °F 53.1 °F 84% 29.76 in 10.0 mi NE 6.9 mph - 0.00 in Rain Light Rain
9:53 PM 57.0 °F 52.0 °F 83% 29.76 in 10.0 mi ENE 8.1 mph - 0.01 in Rain Light Rain
10:53 PM 57.0 °F 52.0 °F 83% 29.75 in 10.0 mi NE 8.1 mph - 0.00 in   Overcast
11:53 PM 55.9 °F 51.1 °F 84% 29.73 in 10.0 mi NE 12.7 mph - 0.00 in Rain Light Rain